カタログに戻る

BREEZE-M DEB

運用中MEO
NORAD 41548·DEBRIS·🇷🇺 Russia

打ち上げ Dec 13, 2015 から Baikonur Cosmodrome

Loading…

次のパス (今後24時間)

TLE

最新Source: Space-Track

元期: Sep 13, 2026, 17:10 UTC

1 41548U 15075J   26256.71593624 -.00000004  00000-0  00000-0 0  9993
2 41548   8.8856  54.9023 0375869 138.9327 224.0947  1.02191171 40176

AllMySatでBREEZE-M DEBをリアルタイム追跡

Download on the App Store